Simultaneous Nadir Overpasses (SNOs) Predictions

Prediction of SNOs between AQUA and NOAA-19 Satellite Orbit:

Table of predicted SNOs for the next 14.0 days since TLE Epoch: 11/4/2022
Index Date (AQUA) Time (AQUA) Lat,Lon (AQUA) SZA (AQUA ) Date (NOAA-19) Time (NOAA-19) Lat,Lon (NOAA-19) SZA (NOAA-19 ) Distance(km) Time Diff (sec)
1 11/05/2022 00:54:53 77.14, 152.46 92.87 11/05/2022 00:54:27 77.14, 152.64 92.86 4.53 26
2 11/05/2022 01:44:18 -77.15, -39.91 87.12 11/05/2022 01:45:23 -77.14, -40.07 87.13 3.98 65
3 11/07/2022 06:27:46 -77.10,-110.60 86.52 11/07/2022 06:27:12 -77.12,-110.56 86.50 1.84 34
4 11/07/2022 07:17:14 77.17, 56.79 93.57 11/07/2022 07:18:14 77.17, 56.89 93.56 2.41 60
5 11/09/2022 12:00:41 77.12, -13.85 94.15 11/09/2022 12:00:03 77.12, -13.72 94.15 3.46 38
6 11/09/2022 12:50:07 -77.16, 153.62 85.80 11/09/2022 12:50:59 -77.16, 153.73 85.81 3.01 52
7 11/11/2022 17:33:33 -77.09, 83.02 85.26 11/11/2022 17:32:49 -77.08, 83.00 85.26 1.93 44
8 11/11/2022 18:23:00 77.12,-109.44 94.79 11/11/2022 18:23:50 77.13,-109.54 94.79 2.58 50
9 11/13/2022 23:06:26 77.09, 179.82 95.34 11/13/2022 23:05:39 77.06, 179.79 95.32 3.62 47
10 11/13/2022 23:55:52 -77.13, -12.69 84.61 11/13/2022 23:56:35 -77.14, -12.57 84.60 3.10 43
11 11/16/2022 04:39:17 -77.09, -83.37 84.09 11/16/2022 04:38:25 -77.05, -83.36 84.12 4.14 52
12 11/16/2022 05:28:44 77.12, 84.15 95.96 11/16/2022 05:29:25 77.10, 84.08 95.93 3.41 41
13 11/18/2022 10:12:08 77.07, 13.50 96.44 11/18/2022 10:11:13 77.06, 13.54 96.44 2.01 55



Historial Predications of SNOs between AQUA and NOAA-19
